SCP
0 0 0 0 0 0 0 0 0 0 0 0 0 0 0 0 0 0 0 0 0 0 0 0 0 0 0 0 0 0 0 0 0 0 0 0 0 0 0 0 0 0 0 0
0 0 0 0 0 0 0 0 0 0 0 0 0 0 0 0 0 0 0 0 0 0 0 0 0 0 0 0 0 0 0 0 0 0 0 0 0 0 0 0 0 0 0 0
0 0 0 0 0 0 0 0 0 0 0 0 0 0 0 0 0 0 0 0 0 0 0 0 0 0 0 0 0 0 0 0 0 0 0 0 0 0 0 0 0 0 0 0
0 0 0 0 0 0 0 0 0 0 0 0 0 0 0 0 0 0 0 0 0 0 0 0 0 0 0 0 0 0 0 0 0 0 0 0 0 0 0 0 0 0 0 0
0 0 0 0 0 0 0 0 0 0 0 0 0 0 0 0 0 0 0 0 0 0 0 0 0 0 0 0 0 0 0 0 0 0 0 0 0 0 0 0 0 0 0 0
0 0 0 0 0 0 0 0 0 0 0 0 0 0 0 0 0 0 0 0 0 0 0 0 0 0 0 0 0 0 0 0 0 0 0 0 0 0 0 0 0 0 0 0
0 0 0 0 0 0 0 0 0 0 0 0 0 0 0 0 0 0 0 0 0 0 0 0 0 0 0 0 0 0 0 0 0 0 0 0 0 0 0 0 0 0 0 0
0 0 0 0 0 0 0 0 0 0 0 0 0 0 0 0 0 0 0 0 0 0 0 0 0 0 0 0 0 0 0 0 0 0 0 0 0 0 0 0 0 0 0 0
0 0 0 0 0 0 0 0 0 0 0 0 0 0 0 0 0 0 0 0 0 0 0 0 0 0 0 0 0 0 0 0 0 0 0 0 0 0 0 0 0 0 0 0
0 0 0 0 0 0 0 0 0 0 0 0 0 0 0 0 0 0 0 0 0 0 0 0 0 0 0 0 0 0 0 0 0 0 0 0 0 0 0 0 0 0 0 0
0 0 0 0 0 0 0 0 0 0 0 0 0 0 0 0 0 0 0 0 0 0 0 0 0 0 0 0 0 0 0 0 0 0 0 0 0 0 0 0 0 0 0 0
0 0 0 0 0 0 0 0 0 0 0 0 0 0 0 0 0 0 0 0 0 0 0 0 0 0 0 0 0 0 0 0 0 0 0 0 0 0 0 0 0 0 0 0
0 0 0 0 0 0 0 0 0 0 0 0 0 0 0 0 0 0 0 0 0 0 0 0 0 0 0 0 0 0 0 0 0 0 0 0 0 0 0 0 0 0 0 0
0 0 0 0 0 0 0 0 0 0 0 0 0 0 0 0 0 0 0 0 0 0 0 0 0 0 0 0 0 0 0 0 0 0 0 0 0 0 0 0 0 0 0 0
0 0 0 0 0 0 0 0 0 0 0 0 0 0 0 0 0 0 0 0 0 0 0 0 0 0 0 0 0 0 0 0 0 0 0 0 0 0 0 0 0 0 0 0
0 0 0 0 0 0 0 0 0 0 0 0 0 0 0 0 0 0 0 0 0 0 0 0 0 0 0 0 0 0 0 0 0 0 0 0 0 0 0 0 0 0 0 0
0 0 0 0 0 0 0 0 0 0 0 -0 0 0 0 0 0 0 0 0 0 0 0 0 0 0 0 0 0 0 0 0 0 0 0 0 0 0 0 0 0 0 0 0
0 0 0 0 0 0 0 0 0 0 0 0 0 0 0 0 0 0 0 0 0 0 0 0 0 0 0 0 0 0 0 0 0 0 0 0 0 0 0 0 0 0 0 0
0 0 0 0 -0 -0 -0 0 0 0 0 0 0 0 0 0 0 0 0 0 0 0 0 0 0 0 0 0 0 0 0 0 0 0 0 0 0 0 0 0 0 0 0 0
-0 -0 -0 -0 -0 -0 0 0 0 0 0 0 0 0 0 0 0 0 0 0 0 0 0 0 0 0 0 0 0 0 0 0 0 0 0 0 0 0 0 0 0 0 0 0
-0 -0 -0 -0 0 0 0 0 0 0 0 0 0 0 0 0 0 0 0 0 0 0 0 0 0 0 0 0 0 0 0 0 0 0 0 0 0 0 0 0 0 0 0 0
-0 -0 0 0 0 0 0 0 0 0 0 0 0 0 0 0 0 0 0 0 0 0 0 0 0 0 0 0 0 0 0 0 0 0 0 0 0 0 0 0 0 0 0 0
0 0 0 0 0 0 0 0 0 0 0 0 0 0 0 0 0 0 0 0 0 0 0 0 0 0 0 0 0 0 0 0 0 0 0 0 0 0 0 0 0 0 0 0
0 0 0 0 0 0 0 0 0 0 0 0 0 0 0 0 0 0 0 0 0 0 0 0 0 0 0 0 0 0 0 0 0 0 0 0 0 0 0 0 0 0 0 0
0 0 0 0 0 0 0 0 0 0 0 0 0 0 0 0 0 0 0 0 0 0 0 0 0 0 0 0 0 0 0 0 0 0 0 0 0 0 0 0 0 0 0 0
0 0 0 0 0 0 0 0 0 0 0 0 0 0 0 0 0 0 0 0 0 0 0 0 0 0 0 0 0 0 0 0 0 0 0 0 0 0 0 0 0 0 0 0
0 0 0 0 0 0 0 0 0 0 0 0 0 0 0 0 0 0 0 0 0 0 0 0 0 0 0 0 0 0 0 0 0 0 0 0 0 0 0 0 0 0 0 0
Wind_Speed
10 10 7 10 14 12 15 14 15 17 17 27 17 8 9 10 10 9 10 10 12 13 13 13 13 14 14 14 13 13 13 13 13 10 9 8 7 7 7 7 8 7 7 8
7 7 7 10 18 18 18 17 20 21 25 25 12 6 9 11 10 11 12 12 13 13 13 14 16 16 15 15 14 13 14 14 11 9 9 9 8 7 7 7 7 7 7 8
6 5 6 12 15 13 9 10 11 19 22 15 10 11 10 9 9 11 14 13 13 14 15 16 17 17 18 16 14 14 14 12 11 11 10 9 8 7 7 7 7 7 7 7
4 4 10 13 4 6 9 12 13 14 14 11 11 8 8 10 12 14 14 13 12 12 13 14 13 14 13 12 13 14 14 13 12 11 11 9 8 8 8 6 6 7 7 7
2 5 12 13 9 5 7 11 11 15 18 16 8 6 10 12 11 14 14 12 11 10 11 10 12 12 12 13 13 14 15 15 14 12 11 10 9 9 7 6 7 6 6 7
4 6 11 13 3 2 2 10 9 8 12 10 0 3 9 9 7 10 10 10 9 7 7 9 10 12 14 15 15 18 17 15 13 12 12 11 10 9 6 6 7 6 6 6
8 9 15 12 2 4 4 10 5 4 8 6 7 11 10 9 9 10 11 11 9 7 8 10 10 13 15 16 19 18 13 12 12 12 12 11 9 7 6 6 6 5 6 6
7 8 16 7 7 10 12 5 5 5 7 8 10 12 13 13 13 13 12 11 9 8 10 8 10 14 16 19 16 11 11 12 12 12 10 9 8 7 6 6 6 6 6 6
15 15 8 6 12 9 4 7 9 9 11 10 12 14 15 14 14 13 12 11 8 9 10 8 11 16 19 16 12 13 14 13 12 11 10 9 9 8 6 6 5 5 5 5
10 13 12 11 11 12 13 15 16 15 14 13 15 17 17 15 13 12 12 10 8 8 10 11 12 16 16 11 13 14 15 14 12 11 10 9 8 7 6 6 6 5 5 5
15 12 10 11 11 13 13 12 14 15 14 13 14 16 16 15 13 12 11 9 7 9 12 14 12 14 13 11 15 15 14 13 12 11 10 10 9 8 8 7 7 6 6 5
23 16 14 14 9 12 14 15 15 16 16 13 11 13 13 13 11 10 10 9 8 10 12 12 10 13 13 13 15 16 14 13 11 10 9 8 8 7 12 11 13 13 11 8
25 21 18 17 13 11 12 13 13 12 12 13 10 9 10 10 10 10 10 10 10 11 12 11 10 12 13 14 16 17 15 14 11 10 10 9 8 8 6 8 11 11 11 10
15 14 16 14 13 10 10 10 9 9 8 9 9 9 9 9 10 12 12 12 11 10 10 9 10 12 12 15 16 16 14 15 13 10 10 9 9 8 7 6 5 4 6 8
12 10 10 8 7 8 7 7 8 9 10 10 9 9 10 11 13 14 14 11 10 9 10 9 10 11 11 15 16 16 14 11 11 9 9 9 8 8 7 7 5 4 3 4
5 4 4 4 6 7 7 7 8 9 9 9 10 11 12 12 13 14 13 9 9 11 11 9 11 10 11 14 15 13 12 18 15 10 9 9 8 8 7 7 6 5 5 4
2 4 4 5 7 7 7 7 8 9 9 10 12 12 12 13 13 14 13 10 10 12 11 10 11 8 11 14 14 11 10 14 21 12 10 10 9 9 8 7 6 6 5 5
1 1 3 5 6 8 9 9 9 9 10 11 12 11 12 13 14 15 15 13 12 12 10 9 8 7 10 12 12 9 9 10 11 10 10 9 9 8 8 7 7 7 4 5
2 3 5 6 7 8 9 10 10 10 11 11 11 12 13 13 13 13 12 12 12 13 10 7 10 8 9 14 15 9 9 10 10 10 9 12 11 8 8 8 7 6 5 5
5 6 7 8 8 8 9 10 11 11 11 11 12 13 14 14 13 12 12 12 10 9 9 8 7 6 8 12 17 9 11 11 11 11 10 10 9 9 8 8 7 7 6 5
8 8 9 10 10 11 11 12 12 13 13 12 12 14 15 15 13 11 10 13 11 8 8 11 6 5 7 10 16 9 10 11 11 10 11 10 10 9 9 8 8 7 6 6
8 9 11 12 13 14 12 11 12 14 14 13 13 13 14 14 13 11 10 10 10 12 8 5 5 8 10 13 9 10 10 11 10 9 9 10 10 9 9 9 8 7 6 6
9 11 12 13 14 15 15 13 12 12 14 14 14 14 14 13 10 10 12 8 6 11 8 5 9 13 15 10 8 10 11 11 10 10 9 9 9 9 9 9 8 7 6 6
12 12 12 13 13 13 15 15 13 11 13 13 13 13 12 11 10 8 9 13 15 15 8 9 13 14 13 7 8 9 9 10 9 9 9 8 8 7 7 8 7 7 7 7
12 13 12 12 12 12 13 13 13 12 12 10 11 12 10 8 10 10 8 9 13 13 7 9 13 13 8 6 8 9 9 9 9 8 8 8 8 8 8 7 7 7 7 6
12 12 11 11 11 11 10 10 10 10 10 11 11 9 8 7 8 9 8 9 10 11 8 5 5 7 5 7 9 10 9 10 11 10 9 8 8 8 8 8 9 7 7 6
11 10 9 10 9 9 9 9 10 11 10 11 13 11 9 8 7 8 8 7 7 6 5 4 4 4 5 6 8 9 9 8 8 8 8 8 7 7 8 9 8 7 7 7
Wind_Direction
255 261 253 248 250 225 214 218 227 248 249 264 271 263 260 262 265 266 258 242 228 224 220 213 208 205 203 201 196 192 193 199 207 206 205 209 217 226 232 238 248 252 260 266
275 267 257 262 259 246 236 235 240 256 267 266 279 277 269 268 265 262 258 250 239 231 223 216 211 207 203 202 196 190 196 203 202 198 202 210 217 223 232 241 250 255 260 265
272 303 330 272 248 230 218 219 213 238 251 274 284 271 267 268 263 258 261 259 247 234 225 220 212 205 203 200 189 190 198 201 197 198 205 211 216 221 231 240 247 255 260 263
275 339 247 247 244 210 222 244 225 241 260 268 255 268 269 259 257 265 264 261 254 240 230 222 211 203 198 186 185 192 197 200 198 198 206 207 211 224 232 234 241 250 257 262
212 258 274 286 274 207 211 272 234 234 254 263 277 316 287 262 239 244 255 257 253 241 229 216 205 194 183 186 189 194 200 201 200 198 202 204 214 223 226 230 242 246 253 261
188 221 248 253 241 148 136 282 260 215 243 262 84 302 277 274 266 258 260 260 258 249 223 213 204 181 184 192 194 203 204 201 196 195 199 206 213 218 219 225 240 248 256 258
215 233 259 260 209 135 207 251 274 212 235 242 212 230 256 282 283 274 271 270 262 241 226 219 192 179 193 197 206 206 196 190 191 195 200 204 208 210 215 227 239 248 259 263
191 213 252 231 156 195 227 266 289 276 262 257 257 267 277 281 280 281 278 272 256 240 239 219 185 186 200 210 208 186 180 187 192 194 197 201 202 209 211 219 236 249 258 270
201 221 244 189 208 234 271 282 278 277 281 281 280 279 280 280 280 281 275 271 254 238 243 223 197 196 209 212 185 175 181 190 192 192 196 196 197 204 209 213 226 244 248 263
252 256 259 260 258 265 263 263 273 278 281 281 277 280 284 284 284 282 278 271 259 241 239 234 212 210 216 196 174 179 187 190 188 190 195 198 200 202 207 212 219 233 243 253
262 269 280 262 253 263 275 280 284 287 286 282 280 282 283 285 284 281 279 274 254 238 241 240 220 215 210 185 175 183 189 190 189 192 193 197 202 205 207 211 209 217 226 231
265 271 270 279 279 284 287 289 293 298 300 298 289 284 287 287 285 284 284 280 268 252 247 246 225 216 204 188 183 183 188 190 190 190 191 193 198 210 225 224 235 241 242 240
262 273 275 284 290 292 291 296 299 299 299 303 305 298 296 292 290 290 288 285 273 263 256 248 228 217 201 189 188 191 192 188 187 188 189 191 193 198 209 226 235 241 247 256
265 278 282 288 293 302 303 305 309 312 310 307 304 304 301 295 296 296 291 286 280 273 264 248 232 222 199 188 191 196 194 191 187 188 188 189 190 193 195 197 208 229 242 253
271 273 280 296 311 321 321 325 331 328 322 318 313 310 308 305 301 296 293 293 289 278 268 251 239 228 194 189 193 194 192 190 187 184 186 186 186 186 190 196 202 208 213 248
297 317 331 335 327 322 324 327 323 315 312 307 307 306 303 298 295 294 294 292 288 283 275 258 245 229 195 190 193 195 195 195 185 182 183 183 184 186 189 193 197 203 213 218
331 343 339 329 319 313 307 300 294 294 298 299 299 300 302 304 305 305 304 300 283 276 272 260 252 226 195 191 191 193 191 195 193 186 185 185 186 188 187 187 193 202 211 214
108 251 272 277 285 294 298 296 293 294 292 290 294 299 302 303 302 301 302 304 301 292 279 261 246 218 198 192 191 190 187 187 187 184 184 186 187 187 185 187 192 198 202 215
293 278 279 279 279 280 283 288 288 287 288 292 296 298 295 291 290 292 297 300 300 298 291 269 254 226 201 197 190 186 183 185 186 184 182 190 189 186 186 187 190 192 192 195
294 288 290 290 289 285 287 289 290 291 292 292 294 296 297 295 295 297 298 292 280 272 275 273 256 223 205 199 195 185 184 186 187 184 183 187 187 187 188 188 186 187 189 192
300 300 301 300 299 296 292 293 295 295 294 291 289 290 291 292 292 291 293 296 294 284 278 275 255 222 203 199 197 185 185 187 189 186 185 187 187 186 187 186 185 185 187 188
294 298 300 301 302 301 297 292 289 289 291 290 286 285 289 292 293 291 278 271 282 292 289 268 249 228 214 203 191 183 186 189 189 187 187 187 187 186 186 185 184 184 182 182
290 293 296 297 297 296 296 292 286 285 287 287 288 288 287 287 288 289 294 287 281 290 288 262 253 245 227 204 186 185 187 190 189 188 189 189 189 187 184 183 181 179 176 177
293 293 291 290 292 294 294 293 290 286 283 283 281 278 279 286 286 270 265 283 291 293 283 267 261 251 230 193 181 184 187 190 189 186 187 186 186 184 182 179 175 174 174 174
287 288 289 291 293 292 291 293 295 292 289 287 284 279 273 265 271 283 283 280 285 291 283 272 265 252 224 185 182 184 185 188 187 183 186 185 184 182 181 178 174 172 172 174
285 285 284 281 280 284 287 289 291 292 294 295 293 288 281 274 269 274 279 278 276 281 278 266 254 239 203 185 183 182 182 187 193 191 186 186 183 179 179 177 171 171 171 170
282 282 283 285 283 278 279 283 286 289 289 290 293 294 290 286 282 279 279 279 277 273 267 256 239 220 197 185 180 178 177 179 181 180 180 183 181 179 179 174 171 167 164 163